Lid_Strength_Index
2 2 3 4 4 4 5 6 7 9 9 10 10 10 8 8 9 10 10 11 13 13
2 2 3 4 4 4 5 7 9 9 10 11 11 11 11 10 11 11 12 12 14 14
2 2 3 4 5 5 7 9 10 10 10 11 11 11 12 12 12 13 14 15 15 16
2 2 3 5 5 6 7 8 9 10 11 11 12 12 12 12 14 14 15 16 15 16
2 3 4 5 5 6 7 8 9 10 10 11 11 12 12 13 14 15 15 16 16 17
3 4 4 4 5 6 7 8 9 10 10 11 11 12 12 13 14 15 15 16 17 17
3 4 4 4 5 6 7 8 9 9 10 10 11 12 13 13 14 15 16 16 17 17
3 3 4 5 6 7 7 8 9 10 10 11 12 12 13 14 15 15 16 16 17 17
7 7 7 8 8 9 10 11 12 12 12 12 12 13 14 14 15 16 16 16 17 17
10 11 11 11 12 12 12 12 12 13 13 13 13 13 14 14 16 16 16 16 17 17
12 12 13 13 13 13 13 13 14 14 14 14 15 13 13 15 16 16 16 16 16 16
14 14 14 14 14 15 15 15 15 15 15 16 16 13 13 14 16 15 16 16 16 15
14 14 14 14 15 16 16 16 17 16 16 16 16 13 13 14 15 16 17 17 16 15
16 15 14 15 17 16 16 16 16 16 16 15 15 14 12 13 15 15 16 16 16 16